Location: Albersdorferegg
(47.1667°N, 15.5667°E)
Time: 07:19:02
(UTC+00:00)

Daily predictions for brighter satellites

Satellite Brightness Start Highest point End
(mag) Time Altitude Azimuth Time Altitude Azimuth Time Altitude Azimuth
USA 306 3.8 16:15:03 10° WNW 16:19:03 36° N 16:23:01 10° ENE
CSL-04 DEB 4.4 16:17:21 10° NNE 16:21:18 86° WNW 16:25:13 10° SSW
Cosmos 968 Rocket 4.4 16:18:21 10° N 16:22:48 27° NE 16:27:11 10° ESE
Cosmos 2369 Rocket 4.1 16:19:00 10° WSW 16:23:45 27° NW 16:28:34 10° N
Aureole 3 Rocket 4.1 16:21:18 10° SE 16:24:46 27° E 16:29:14 10° NNE
Cosmos 2297 Rocket 2.6 16:19:57 10° NNW 16:25:21 42° NE 16:30:42 10° SE
ERS-2 2.2 16:21:52 10° NNE 16:25:27 55° ESE 16:29:02 10° S
SAR-Lupe-4 4.4 16:22:19 10° NE 16:25:30 29° E 16:28:41 10° SSE
Meteor 1-11 4.3 16:20:42 10° N 16:26:28 81° ENE 16:32:15 10° SSE
COSMOS 2487 4.1 16:25:33 10° NW 16:28:46 38° WSW 16:31:59 10° S
Cosmos 1340 3.5 16:26:11 10° N 16:29:28 28° ENE 16:32:46 10° SE
CORIOLIS 4.2 16:25:55 10° SSE 16:31:16 89° WSW 16:36:40 10° NNW
COSMO-SKYMED 1 3.3 16:27:34 10° NNE 16:31:27 31° E 16:35:17 10° SSE
FengYun 1-2 T 4.3 16:26:44 10° SSE 16:32:22 74° ENE 16:38:00 10° N
H-2A R/B 2.9 16:29:23 10° N 16:33:27 51° WNW 16:37:25 10° SW
Cosmos 1110 Rocket 4.0 16:28:43 10° SSW 16:33:58 82° ESE 16:39:12 10° NNE
Cosmos 1302 Rocket 4.4 16:31:29 10° S 16:36:23 42° ESE 16:41:21 10° NE
NOSS 2-2 (C) 4.5 16:32:32 10° NW 16:37:56 68° NE 16:45:27 10° SE
Lacrosse 5 3.3 16:35:19 10° WNW 16:39:42 28° N 16:44:05 10° NE
Timation 2 Rocket 4.1 16:33:51 10° NNW 16:40:30 81° ENE 16:47:19 10° SSE
Cosmos 1825 Rocket 3.7 16:36:35 10° NNW 16:41:04 80° W 16:45:27 10° S
Cosmos 292 Rocket 3.7 16:38:29 10° S 16:43:14 69° ESE 16:48:03 10° NNE
SAR-Lupe-1 4.4 16:40:00 10° NNE 16:43:27 44° E 16:46:54 10° S
ADEOS Rocket 3.9 16:37:15 10° N 16:43:29 60° WNW 16:50:25 10° SSW
Aureole 3 3.3 16:40:53 10° SSE 16:43:43 32° E 16:46:26 10° NNE
Okean O Rocket 2.5 16:40:34 10° S 16:44:50 53° W 16:49:07 10° NNW
Meteor 2-21 Rocket 4.5 16:39:42 10° N 16:45:55 86° E 16:52:03 10° S
FALCON 9 DEB 4.4 16:43:30 10° WNW 16:46:34 29° N 16:48:52 15° ENE
YAOGAN 1 3.4 16:43:02 10° SE 16:46:45 29° ENE 16:50:28 10° N
USA 281 3.8 16:40:59 10° SSE 16:47:27 61° WSW 16:53:59 10° NNW
FALCON 9 DEB 3.0 16:45:38 10° SW 16:48:49 63° SSE 16:51:05 18° ENE
CZ-2C R/B 3.7 16:47:42 10° SE 16:53:01 39° ENE 16:58:12 10° N
Feng Yun 1-1 Rocket 4.4 16:47:08 10° SSE 16:53:02 83° ENE 16:59:01 10° NNW
FALCON 9 DEB 2.9 16:49:54 10° SW 16:53:05 73° SSE 16:55:10 20° ENE
SMAP 4.4 16:49:18 10° S 16:53:45 45° W 16:58:13 10° NNW
Cosmos 2219 3.2 16:49:58 10° NNW 16:55:45 72° ENE 17:01:29 10° SE
Cosmos 1455 3.5 16:53:19 10° SE 16:56:01 19° E 16:56:10 19° E
Cosmos 1726 Rocket 3.5 16:52:43 10° S 16:57:04 89° W 17:01:29 10° N
Cosmos 1553 Rocket 4.2 16:53:51 10° SSE 16:59:57 51° E 17:06:00 10° NNE
USA 307 3.4 16:58:04 10° NW 17:02:14 46° NNE 17:04:41 22° E
Meteor 2-10 Rocket 4.1 16:58:11 10° SSE 17:02:57 35° E 17:07:35 10° NNE
Cosmos 2228 3.7 17:00:01 10° SSW 17:04:11 56° WNW 17:08:25 10° N
Cosmos 2082 4.2 16:58:57 10° NNW 17:04:21 40° NE 17:08:49 14° ESE
Cosmos 1939 Rocket 2.7 17:00:40 10° SSE 17:04:38 85° ENE 17:08:34 10° NNW
FALCON 9 DEB 2.9 17:01:50 10° WSW 17:05:05 85° SE 17:06:44 26° ENE
CZ-4B R/B 2.4 17:02:19 10° N 17:05:26 46° WNW 17:08:28 10° SSW
USA 308 3.3 17:02:55 10° NW 17:07:06 48° NNE 17:09:20 24° E
CZ-4 R/B 4.3 17:05:02 10° SSE 17:09:10 75° ENE 17:13:20 10° N
ATLAS 5 CENTAUR R/B 4.1 17:06:34 10° NW 17:09:11 15° NNW 17:12:00 10° NNE
Helios 1A Rocket 2.8 17:07:41 10° SSE 17:11:47 71° ENE 17:15:53 10° N
Cosmos 1992 Rocket 4.5 17:10:47 10° SSE 17:15:31 37° ESE 17:19:35 14° NE
ARGOS 3.8 17:13:10 17° ESE 17:16:31 33° ENE 17:21:20 10° N
FALCON 9 DEB 3.0 17:13:31 10° WSW 17:16:44 76° NNW 17:17:56 35° NE
Okean-O 2.5 17:13:50 10° SSE 17:18:14 73° ENE 17:22:40 10° N
Cosmos 2369 4.4 17:13:31 10° SSE 17:18:30 32° ESE 17:21:09 22° ENE
SKYMED 2 3.6 17:15:17 10° NNE 17:19:40 86° WNW 17:24:00 10° SSW
Meteor 2-15 4.5 17:14:50 10° S 17:20:50 58° E 17:26:50 10° NNE
Cosmos 1689 Rocket 2.1 17:18:01 10° N 17:20:55 74° WNW 17:23:47 10° SSW
Cosmos 1656 3.6 17:16:25 10° SSW 17:21:56 71° ESE 17:27:35 10° NNE
SL-08 R/B 4.4 17:15:52 10° N 17:22:04 82° E 17:28:11 10° S
Cosmos 1400 Rocket 3.1 17:20:21 10° SSW 17:24:28 73° WNW 17:28:33 10° N
Cosmos 1745 Rocket 4.0 17:19:01 10° N 17:25:17 64° ENE 17:31:34 10° SSE
H-2A R/B 2.3 17:20:49 10° SE 17:26:01 50° ENE 17:31:18 10° N
Ariane Rocket 4.3 17:27:38 21° NE 17:27:38 21° NE 17:30:44 10° NNE
GEOS 3 Rocket 3.8 17:24:33 24° ESE 17:27:39 57° NE 17:32:56 10° NNW
PSLV R/B 3.9 17:23:44 10° NNE 17:27:57 85° WNW 17:32:05 10° SSW
CZ-4 R/B 1.1 17:24:42 10° SSE 17:28:36 86° ENE 17:32:29 10° NNW
Geosat 4.3 17:26:30 22° NE 17:29:24 44° ESE 17:34:11 10° S
Cosmos 2227 Rocket 2.2 17:24:00 10° NNW 17:29:41 84° WSW 17:35:21 10° SSE
Cosmos 2058 2.8 17:25:56 10° N 17:30:00 64° ENE 17:34:05 10° SSE
Cosmos 1892 2.7 17:27:26 10° N 17:31:21 86° W 17:35:13 10° S
Cosmos 220 Rocket 4.1 17:28:05 10° S 17:32:18 52° ESE 17:34:08 31° NE
CSL-04 Rocket 3.7 17:28:53 10° SSE 17:34:20 60° ENE 17:39:45 10° N
Cosmos 2263 Rocket 3.4 17:30:40 10° N 17:35:14 24° NE 17:35:34 24° NE
Cosmos 1408 2.4 17:31:54 10° N 17:35:33 69° E 17:37:15 29° SSE
BREEZE-M R/B 3.1 17:29:48 10° W 17:36:37 67° N 17:37:09 54° ENE
Cosmos 1386 Rocket 4.4 17:32:17 10° N 17:38:44 76° E 17:45:04 10° SSE
Meteor 2-1 Rocket 4.1 17:35:48 10° S 17:41:14 66° E 17:46:44 10° NNE
NOSS 3-4 (A) 4.3 17:35:08 10° NNW 17:41:34 42° NE 17:44:11 32° E
NOSS 3-4 (C) 4.3 17:35:14 10° NNW 17:41:41 42° NE 17:44:16 32° E
CZ-4C R/B 3.9 17:36:27 10° NNW 17:42:03 27° NNE 17:44:24 23° NE
Cosmos 2058 Rocket 4.2 17:41:52 10° SSW 17:46:09 45° WNW 17:50:31 10° N
Cosmos 1697 Rocket 2.6 17:41:01 10° S 17:46:31 60° ESE 17:49:37 26° NE
SeaSat 1 2.6 17:46:28 45° E 17:47:22 51° NE 17:52:10 10° NNW
SL-4 R/B 2.2 17:45:36 10° WNW 17:49:04 49° N 17:49:04 49° N
Cosmos 1346 Rocket 3.0 17:46:18 10° NNW 17:50:18 72° W 17:54:07 11° S
NOSS 3-3 (A) 3.8 17:45:45 10° SSW 17:51:27 63° ESE 17:54:18 33° NE
NOSS 3-3 (C) 3.8 17:45:50 10° SSW 17:51:35 63° ESE 17:54:24 33° NE
CRYOSAT 2 4.2 17:47:12 10° N 17:52:06 78° E 17:56:57 10° S
Cosmos 1825 2.6 17:48:46 10° N 17:51:38 47° NNE 17:51:38 47° NNE
USA 305 2.7 17:48:45 10° WNW 17:53:04 80° NNE 17:53:27 72° E
USA 215 3.7 17:51:39 33° ENE 17:54:04 47° NNE 18:00:17 10° NW
Cosmos 1709 Rocket 4.0 17:48:44 10° N 17:55:05 63° ENE 17:59:42 19° SSE
Cosmos 1315 Rocket 2.6 17:51:39 10° S 17:55:36 87° E 17:56:19 59° NNE
SJ-11-01 4.2 17:53:43 17° SSE 17:57:18 89° WSW 18:02:01 10° NNW
USA 306 2.7 17:55:10 10° WNW 17:59:28 87° NNE 17:59:35 84° E
BREEZE-M R/B 3.8 17:58:43 10° WNW 18:03:03 81° NNE 18:05:18 46° E
ATLAS 2AS CENTAUR R/B 3.2 17:56:30 10° NW 18:03:47 45° NE 18:05:17 40° ENE
Cosmos 968 Rocket 4.4 17:59:50 10° NNW 18:04:51 49° WSW 18:09:48 10° S
MOS 1 Rocket 3.3 18:03:53 10° NNE 18:08:34 84° WNW 18:13:30 10° SSW
Cosmos 1980 Rocket 2.9 18:03:48 10° S 18:07:19 35° SSE 18:07:19 35° SSE
Cosmos 2297 Rocket 3.7 18:04:12 10° NW 18:09:19 35° WSW 18:14:23 10° S
Cosmos 1076 Rocket 3.8 18:06:01 10° NNW 18:10:15 65° W 18:11:35 41° SSW
Cosmos 883 Rocket 4.3 18:04:49 10° S 18:10:57 77° E 18:17:06 10° NNE
Cosmos 2315 Rocket 3.8 18:08:51 10° S 18:14:59 68° E 18:21:09 10° NNE
S3M 4.3 18:09:33 10° SSW 18:15:36 64° WNW 18:21:46 10° N
YAOGAN 1 4.3 18:18:55 10° SSW 18:22:46 31° W 18:26:40 10° NNW
Lacrosse 5 3.1 18:19:22 10° NW 18:23:30 30° N 18:23:30 30° N
Cosmos 2360 4.1 18:19:40 10° SSW 18:25:25 90° NW 18:26:15 67° NNE
Cosmos 1812 Rocket 4.3 18:26:13 10° SSW 18:30:31 52° WNW 18:30:36 52° WNW
Cosmos 1455 3.8 18:27:56 10° SW 18:31:14 33° W 18:31:14 33° W
Meteor 2-3 Rocket 4.4 18:30:45 10° N 18:34:43 44° N 18:34:43 44° N
Cosmos 2278 4.3 18:32:57 10° SSW 18:36:45 44° SSW 18:36:45 44° SSW
USA 307 4.5 18:38:12 10° WNW 18:40:52 34° W 18:40:52 34° W
ATLAS 5 CENTAUR R/B 4.3 18:53:15 10° NNW 18:55:01 14° N 18:55:01 14° N
ARGOS 4.3 18:54:41 30° SW 18:56:41 40° W 19:01:48 10° NNW
H-2A R/B 4.1 19:01:12 10° SSW 19:05:42 26° W 19:10:13 10° NW
Cosmos 2263 Rocket 3.5 19:14:04 10° NNW 19:17:16 35° NW 19:17:16 35° NW
SeaSat 1 4.5 19:26:15 24° W 19:26:15 24° W 19:29:15 10° NW
Cosmos 1697 Rocket 4.5 19:26:10 10° WSW 19:30:54 27° NW 19:31:25 27° NW
CZ-4C R/B 3.5 19:24:46 10° NW 19:29:36 47° NNW 19:29:36 47° NNW
NOSS 3-4 (A) 4.4 19:25:57 10° NW 19:31:39 55° W 19:31:39 55° W
NOSS 3-4 (C) 4.4 19:26:04 10° NW 19:31:43 55° W 19:31:43 55° W
USA 215 4.1 19:39:00 46° WNW 19:39:00 46° WNW 19:43:24 10° NW
ATLAS 2AS CENTAUR R/B 3.8 19:47:45 10° NW 19:52:43 41° WNW 19:52:43 41° WNW
